Regional Weather Roundup
Issued by NWS

Home | Current Version | Previous Version | Text Only | Print | Product List | Glossary Off
Versions: 1 2 3 4 5 6 7 8 9 10 11 12 13 14 15 16 17 18 19 20 21 22 23 24 25 26 27 28 29 30 31 32 33 34 35 36 37 38 39 40 41 42 43 44 45 46 47 48 49 50

000
ASUS43 KLOT 300221
RWRIL

ILLINOIS REGIONAL WEATHER ROUNDUP
NATIONAL WEATHER SERVICE CHICAGO/ROMEOVILLE IL
900 PM CDT SAT AUG 29 2015

NOTE: "FAIR" INDICATES FEW OR NO CLOUDS BELOW 12,000 FEET WITH NO
SIGNIFICANT WEATHER AND/OR OBSTRUCTIONS TO VISIBILITY.

* THESE STATIONS ARE NOT UNDER NWS QUALITY CONTROL. THEY ALSO MAY NOT
  REPORT WEATHER SUCH AS PRECIPITATION OR FOG.

ILZ001-002-007-009-015-016-024-300300-
NORTHWEST ILLINOIS

CITY           SKY/WX    TMP DP  RH WIND       PRES   REMARKS
MOLINE         PTCLDY    65  64  97 CALM      30.03R
STERLING*      CLOUDY   N/A N/A N/A CALM      30.02R
SAVANNA*       CLOUDY    69  65  85 NE5       30.04R
$$

ILZ003-004-008-010-011-017-018-300300-
NORTH CENTRAL ILLINOIS

CITY           SKY/WX    TMP DP  RH WIND       PRES   REMARKS
ROCKFORD       DRIZZLE   67  64  90 NE7       30.06R
FREEPORT*      CLOUDY    65  63  93 NE5       30.07R
ROCHELLE*      CLOUDY    67  66  94 CALM      30.04R
DE KALB*       CLOUDY    67  65  93 N6        30.04S FOG
PERU*          CLOUDY    70  67  91 NE5       30.03R
$$

ILZ005-006-012>014-019>023-300300-
NORTHEAST ILLINOIS

CITY           SKY/WX    TMP DP  RH WIND       PRES   REMARKS
CHICAGO-OHARE  LGT RAIN  67  65  93 N7        30.03R FOG
CHICAGO-MIDWAY LGT RAIN  70  66  87 N7        30.02R FOG
AURORA         CLOUDY    69  66  90 N3        30.04R FOG
LANSING*       CLOUDY    69  66  89 N3        30.03R
JOLIET*        RAIN      70  69  95 CALM      30.02S
WAUKEGAN       CLOUDY    64  63  96 NW6       30.03R FOG
DUPAGE AIRPORT CLOUDY    67  65  93 NE5       30.03R FOG
KANKAKEE*      CLOUDY    71  70  98 CALM      30.02R FOG
WHEELING       CLOUDY    67  65  93 CALM      30.04R FOG
MORRIS*        CLOUDY    69  67  94 CALM      30.02R FOG
ROMEOVILLE*    DRIZZLE   68  67  97 N3        30.03R
NORTHERLY ISL    N/A     63  61  93 MISG        N/A
$$

LMZ740>746-300300-
SOUTHERN LAKE MICHIGAN

STATION/POSITION SKY/WX   TEMP    WIND        PRES    VSBY  WAVE
                          AIR SEA DIR/SP/G                  HT/PER
                          (F)     (DEG/KT/KT) (MB)    (MI)  (FT/S)
SOUTHERN BUOY              68      40/  6/  8 1016.3R
WILMETTE HARBOR            56 55  130/  4/  4   N/A           1/ 3
HARRISON CRIB              62     350/  7/  9   N/A
BURNHAM HARBOR             64     360/  7/  8   N/A
BURNS HARBOR               71     200/  2/  5 1016.3S
MICHIGAN CITY              70      70/  2/  3   N/A
MICHIGAN CITY 6N           71 70  160/  4/  4   N/A           0
ST. JOSEPH                 70 70  230/  4/  6   N/A           0
$$

ILZ025>027-034>036-040-047-049-050-058-095>099-300300-
WEST-CENTRAL ILLINOIS

CITY           SKY/WX    TMP DP  RH WIND       PRES   REMARKS
QUINCY         CLOUDY    75  69  81 CALM      30.01R
GALESBURG*     MOCLDY    69  67  92 N8        30.03R
MACOMB*        MOCLDY    72  69  91 CALM      30.03S
JACKSONVILLE*  CLOUDY    76  71  84 CALM      30.02R
PITTSFIELD*    CLOUDY    76  70  82 CALM      30.03R
$$

ILZ028>032-037-038-041>044-048-051>054-059>061-300300-
CENTRAL ILLINOIS

CITY           SKY/WX    TMP DP  RH WIND       PRES   REMARKS
PONTIAC        CLOUDY    73  70  91 N3        30.03R
BLOOMINGTON    CLOUDY    74  71  90 S5        30.04R
DECATUR        CLOUDY    75  66  73 S8        30.03R
PEORIA         CLOUDY    76  68  76 NE6       30.02R
LACON*         CLOUDY    71  67  89 CALM      30.02R
LINCOLN*       MOCLDY    75  68  77 CALM      30.01R
SPRINGFIELD    CLOUDY    75  68  78 S5        30.01R
TAYLORVILLE    MOCLDY    72  68  88 CALM      30.02R
$$

ILZ033-039-045-046-055>057-062-063-300300-
EAST-CENTRAL ILLINOIS

CITY           SKY/WX    TMP DP  RH WIND       PRES   REMARKS
CHAMPAIGN      CLOUDY    72  67  84 S5        30.03R
RANTOUL*       CLOUDY    73  69  88 SW5       30.02R
MATTOON        HAZE      73  67  81 CALM      30.03R VSB 1/4
PARIS*         CLOUDY    71  68  90 SW5       30.05R
$$

ILZ079-100>102-300300-
SOUTHWEST ILLINOIS

CITY           SKY/WX    TMP DP  RH WIND       PRES   REMARKS
ALTON          CLOUDY    72  68  88 CALM      30.01S
BELLEVILLE     CLOUDY    72  71  97 CALM      30.01R
CAHOKIA*       CLOUDY    74  68  81 SE5       30.01R
SPARTA*        CLOUDY    73  68  83 CALM      30.04R
$$

ILZ064>066-069>071-074>076-080>082-084>086-088>090-092>094-300300-
SOUTH-CENTRAL ILLINOIS

CITY           SKY/WX    TMP DP  RH WIND       PRES   REMARKS
CARBONDALE     LGT RAIN  73  71  93 CALM      30.04R
CAIRO*         CLOUDY    74  74  98 CALM      30.02R
EFFINGHAM*     CLOUDY    70  67  89 CALM      30.06R
MARION         CLOUDY    75  72  88 CALM      30.04R
MT. VERNON     CLOUDY    70  64  83 CALM      30.06R
SALEM*         CLOUDY    71  67  87 CALM      30.04R
METROPOLIS*    CLOUDY    74  73  93 CALM      30.03R
$$

ILZ067-068-072-073-078-083-087-091-300300-
SOUTHEAST ILLINOIS

CITY           SKY/WX    TMP DP  RH WIND       PRES   REMARKS
LAWRENCEVILLE  CLOUDY    73  70  90 CALM      30.04R
FLORA*         CLOUDY    70  67  91 CALM      30.05R
FAIRFIELD*     LGT RAIN  71  69  95 CALM      30.03R
HARRISBURG*    CLOUDY    74  72  92 CALM      30.04R
ROBINSON*      CLOUDY    70  68  93 W5        30.06R
CARMI*         CLOUDY    72  70  95 CALM      30.03R
$$

ABBREVIATIONS USED IN REMARKS
   TC - TEMPERATURE IN CELSIUS
  WCI - WIND CHILL INDEX
   HX - HEAT INDEX
  VSB - VISIBILITY
$$




USA.gov is the U.S. government's official web portal to all federal, state and local government web resources and services.